OSCAR 7 (AO-7) 1 07530U 74089B 26150.02056965 -.00000031 00000+0 97780-4 0 9999 2 07530 101.9903 163.0776 0012386 164.1537 219.7720 12.53697801358249 PHASE 3B (AO-10) 1 14129U 83058B 26149.43181623 .00000251 00000+0 00000+0 0 9997 2 14129 25.9003 222.6747 6017259 110.5072 321.2578 2.05868979295103 UOSAT 2 (UO-11) 1 14781U 84021B 26149.83014364 .00001415 00000+0 14978-3 0 9999 2 14781 97.8048 115.6119 0006175 239.0955 120.9657 14.90732983254394 LUSAT (LO-19) 1 20442U 90005G 26150.04206668 .00000168 00000+0 76633-4 0 9995 2 20442 98.8856 171.3471 0010453 258.4043 101.5968 14.34117056899795 EYESAT A (AO-27) 1 22825U 93061C 26150.09932847 .00000136 00000+0 68780-4 0 9996 2 22825 98.6885 217.5186 0009027 147.3678 212.8064 14.30936759704415 ITAMSAT (IO-26) 1 22826U 93061D 26150.15403588 .00000134 00000+0 67194-4 0 9995 2 22826 98.6834 217.4891 0009785 132.0748 228.1268 14.31363004704731 RADIO ROSTO (RS15) 1 23439U 94085A 26149.93471955 -.00000042 00000+0 61905-5 0 9994 2 23439 64.8186 332.7364 0155415 7.2431 353.0689 11.27583672293844 JAS-2 (FO-29) 1 24278U 96046B 26150.04903780 -.00000012 00000+0 21029-4 0 9994 2 24278 98.5257 1.4045 0350482 143.3879 219.1773 13.53273460470715 TECHSAT 1B (GO-32) 1 25397U 98043D 26149.94167435 .00000075 00000+0 52762-4 0 9998 2 25397 99.0063 142.2408 0000223 276.6838 83.4314 14.24424463448736 ISS (ZARYA) 1 25544U 98067A 26150.13051462 .00013825 00000+0 25414-3 0 9993 2 25544 51.6337 29.4904 0007252 113.3793 246.7959 15.49488485568959 PCSAT (NO-44) 1 26931U 01043C 26149.78993453 .00000162 00000+0 91528-4 0 9996 2 26931 67.0511 291.8546 0006140 263.9055 96.1347 14.31948346287818 SAUDISAT 1C (SO-50) 1 27607U 02058C 26150.08318950 .00001204 00000+0 15896-3 0 9993 2 27607 64.5508 184.9974 0075565 265.7847 93.4621 14.83003638261775 CUTE-1 (CO-55) 1 27844U 03031E 26148.99988317 .00000334 00000+0 16336-3 0 9998 2 27844 98.6738 157.8003 0008465 237.2714 122.7649 14.24322409188943 CUBESAT XI-IV (CO-57) 1 27848U 03031J 26149.96270161 .00000306 00000+0 15347-3 0 9991 2 27848 98.6767 158.4780 0008238 255.2100 104.8166 14.23610036188787 MOZHAETS 4 (RS22) 1 27939U 03042A 26150.22657396 .00001183 00000+0 19055-3 0 9998 2 27939 98.3465 334.0789 0010635 332.0252 143.2762 14.73431107212903 CUBESAT XI-V 1 28895U 05043F 26149.85292988 .00001750 00000+0 28315-3 0 9991 2 28895 98.2965 305.0926 0012787 262.8940 97.0813 14.72575757 99055 CUTE-1.7+APD II (CO-65) 1 32785U 08021C 26150.15035413 .00007551 00000+0 47770-3 0 9997 2 32785 97.8266 131.1974 0010749 90.7745 269.4714 15.09259915982473 SEEDS II (CO-66) 1 32791U 08021J 26149.52559085 .00021952 00000+0 71111-3 0 9996 2 32791 97.7513 146.5426 0003682 52.1116 308.0457 15.32031065984430 YUBILEINY (RS30) 1 32953U 08025A 26150.15185810 .00000069 00000+0 42312-3 0 9999 2 32953 82.5058 6.6611 0019627 354.0041 6.0801 12.43178668817450 KKS-1 (KISEKI) 1 33499U 09002H 26149.97297278 .00001858 00000+0 23500-3 0 9996 2 33499 98.1196 72.1270 0007864 0.5218 359.6002 14.83070699933494 SWISSCUBE 1 35932U 09051B 26150.17466748 .00001355 00000+0 27738-3 0 9997 2 35932 98.4050 57.7487 0005406 271.1353 88.9229 14.62442694886524 BEESAT-1 1 35933U 09051C 26150.17476530 .00001148 00000+0 24034-3 0 9994 2 35933 98.3979 57.4218 0004011 290.6399 69.4371 14.61687613886556 ITUPSAT1 1 35935U 09051E 26150.14990154 .00001045 00000+0 22590-3 0 9997 2 35935 98.4064 56.6075 0006337 301.5023 58.5558 14.60410305886103 XIWANG-1 (HOPE-1) 1 36122U 09072B 26150.15609208 .00000242 00000+0 75045-3 0 9998 2 36122 100.4012 104.2771 0006834 276.8622 83.1713 13.16439351790634 O/OREOS (USA 219) 1 37224U 10062C 26150.04688258 .00003237 00000+0 31149-3 0 9997 2 37224 71.9693 121.4266 0012399 103.0349 257.2206 14.93655617113939 JUGNU 1 37839U 11058B 26150.10134222 .00000457 00000+0 98787-4 0 9992 2 37839 19.9615 58.2996 0018517 236.2367 258.9198 14.13771032756462 SRMSAT 1 37841U 11058D 26150.19586354 .00000414 00000+0 80696-4 0 9994 2 37841 19.9700 168.3684 0011788 7.2397 59.9919 14.11571467755275 STRAND-1 1 39090U 13009E 26149.46692516 .00000344 00000+0 13006-3 0 9998 2 39090 98.3916 330.1628 0007452 289.9621 70.0763 14.37150849694371 ZACUBE-1 (TSHEPISOSAT) 1 39417U 13066B 26149.87635523 .00006095 00000+0 47377-3 0 9991 2 39417 97.8104 112.1137 0040054 312.6872 47.0980 15.01042051677987 GOMX-1 1 39430U 13066Q 26150.14066547 .00003253 00000+0 49088-3 0 9996 2 39430 97.6494 351.7429 0129754 134.9707 226.2107 14.69381654667264 CUBEBUG-2 (LO-74) 1 39440U 13066AA 26149.84200471 .00004747 00000+0 44020-3 0 9998 2 39440 97.8896 98.7464 0059336 88.2774 272.5240 14.93594351674259 FUNCUBE-1 (AO-73) 1 39444U 13066AE 26150.15708831 .00009509 00000+0 59328-3 0 9999 2 39444 97.8261 121.2308 0034499 264.8610 94.8680 15.09238956676947 UWE-3 1 39446U 13066AG 26149.83368301 .00007081 00000+0 60721-3 0 9990 2 39446 97.8697 105.7872 0049957 23.2472 337.0993 14.96857379674839 UNISAT-6 1 40012U 14033C 26149.91207287 .00004898 00000+0 52737-3 0 9991 2 40012 97.7854 302.9497 0046346 127.8065 232.7362 14.88128912643445 DUCHIFAT-1 1 40021U 14033M 26149.64437996 .00104085 00000+0 12375-2 0 9995 2 40021 98.0487 206.2549 0005540 148.3419 211.8170 15.60780939652851 QB50P1 1 40025U 14033R 26150.02415252 .00012584 00000+0 62258-3 0 9992 2 40025 98.0965 159.9007 0006994 291.8043 68.2444 15.17949394650276 LILACSAT-2 1 40908U 15049K 26150.14466149 .00023012 00000+0 40022-3 0 9997 2 40908 97.4664 186.3071 0005708 332.1963 27.8983 15.50788718592959 FOX-1A (AO-85) 1 40967U 15058D 26149.90643839 .00004357 00000+0 39057-3 0 9994 2 40967 64.7762 335.7907 0129624 63.7760 297.6609 14.90858030110848 CAS-2T & KS-1Q 1 41847U 16066G 26149.74735532 .00001869 00000+0 27053-3 0 9994 2 41847 98.3824 225.6933 0341947 185.3265 174.4253 14.44628721502134 RADFXSAT (FOX-1B) 1 43017U 17073E 26149.61868316 .00012445 00000+0 54221-3 0 9996 2 43017 97.4739 17.2170 0152585 33.3983 327.6759 15.12348750462589 DIWATA-2B 1 43678U 18084H 26150.16364208 .00003147 00000+0 25563-3 0 9991 2 43678 98.1143 345.5938 0011734 230.7958 129.2223 15.00355396413515 ES'HAIL 2 1 43700U 18090A 26150.15174416 .00000156 00000+0 00000+0 0 9995 2 43700 0.0174 314.1079 0001762 139.3705 234.6168 1.00270249 27494 FOX-1CLIFF (AO-95) 1 43770U 18099N 26150.11673980 .00016325 00000+0 63088-3 0 9991 2 43770 97.4397 210.4339 0009792 59.6331 300.5875 15.26275584410466 ITASAT 1 43786U 18099AE 26150.03711525 .00010086 00000+0 48660-3 0 9994 2 43786 97.4039 201.9128 0013882 61.0172 299.2452 15.18794900410152 JY1SAT (JO-97) 1 43803U 18099AX 26150.14963961 .00022375 00000+0 70257-3 0 9990 2 43803 97.4140 212.9285 0004668 349.6611 10.4534 15.33015809410869 UWE-4 1 43880U 18111E 26149.76286997 .00043885 00000+0 93193-3 0 9996 2 43880 97.5865 77.3215 0009063 46.1728 314.0267 15.44858582407932 TIANYAN 01 1 44881U 19093C 26150.13939984 .00000876 00000+0 10497-3 0 9991 2 44881 97.7537 222.8112 0014438 141.8125 218.4117 14.86483750348730 RS-44 & BREEZE-KM R/B 1 44909U 19096E 26150.02340725 .00000036 00000+0 10006-3 0 9996 2 44909 82.5222 351.7776 0217340 186.5784 173.2455 12.79748520300028 SALSAT 1 46495U 20068K 26149.76373932 .00009782 00000+0 34443-3 0 9992 2 46495 97.8846 151.7113 0010040 18.2992 341.8607 15.29494640312545 XW-3 (CAS-9) 1 50466U 21131B 26150.21377010 .00000733 00000+0 24011-3 0 9997 2 50466 98.4975 242.7013 0004943 139.9468 220.2086 14.41338873232520 GREENCUBE (IO-117) 1 53109U 22080E 26149.81920120 -.00000003 00000+0 00000+0 0 9997 2 53109 70.1436 304.6347 0008872 293.9158 66.0572 6.42583278 90886 UMKA 1 (RS40S) 1 57172U 23091G 26150.13028587 .00008193 00000+0 37627-3 0 9993 2 57172 97.5063 208.8988 0013052 175.6979 184.4371 15.20582756161267 CUBESX-HSE 3 (RS42S) 1 57178U 23091N 26150.13452324 .00018687 00000+0 63019-3 0 9992 2 57178 97.5105 215.4995 0011840 150.7000 209.4907 15.30701636161662 MONITOR-3 (RS58S) 1 57180U 23091Q 26150.11974612 .00015491 00000+0 57785-3 0 9995 2 57180 97.5097 213.4374 0012578 157.3937 202.7858 15.27432851161538 MONITOR-4 (RS57S) 1 57182U 23091S 26150.16540377 .00014184 00000+0 52785-3 0 9992 2 57182 97.5091 213.4537 0012557 157.4451 202.7342 15.27531718161545 MONITOR-2 (RS39S) 1 57184U 23091U 26150.12913221 .00006638 00000+0 32253-3 0 9995 2 57184 97.5084 208.5300 0011655 167.9161 192.2355 15.18719538161213 SVYATOBOR 1 (RS60S) 1 57187U 23091X 26150.16328442 .00012045 00000+0 46650-3 0 9992 2 57187 97.5102 213.8842 0010483 148.9470 211.2389 15.26269539161564 VIZARD-METEO (RS38S) 1 57189U 23091Z 26150.16405353 .00023045 00000+0 67088-3 0 9991 2 57189 97.5104 219.2959 0008710 130.9257 229.2742 15.35384288161922 POLYTECH-UNIVERSE 3 (R*) 1 57191U 23091AB 26150.15870536 .00007493 00000+0 36105-3 0 9997 2 57191 97.5061 208.0642 0015454 186.1303 173.9744 15.18920504161217 UTMN 2 (RS27S) 1 57203U 23091AP 26150.16206095 .00017360 00000+0 57086-3 0 9990 2 57203 97.5100 217.1391 0009375 137.2760 222.9212 15.31557237161787 KUZGTU 1 (RS47S) 1 57217U 23091AV 26150.17532955 .00018117 00000+0 63604-3 0 9997 2 57217 97.5078 214.4772 0011977 153.9830 206.2015 15.29398052161627 SONATE-2 1 59112U 24043Q 26149.38395000 .00045786 00000+0 62823-3 0 9994 2 59112 97.5509 298.6503 0006031 263.0916 96.9652 15.57197917124966 MESAT1 1 60209U 24125G 26150.04280808 .00065575 00000+0 77305-3 0 9997 2 60209 97.2317 7.1368 0008122 280.4909 79.5433 15.61124826106732 OOV-CUBE (TUBSAT-30) 1 60240U 24128F 26149.95635166 .00003799 00000+0 29231-3 0 9999 2 60240 61.9959 289.1380 0046954 129.7477 230.7766 15.02674375103374 COLIBRI-S (RS67S) 1 61746U 24199M 26150.08364785 .00027313 00000+0 54314-3 0 9999 2 61746 97.3021 23.7820 0007868 0.2090 359.9162 15.46889839134611 HORS 3 (RS81S) 1 61753U 24199U 26150.12778115 .00047121 00000+0 73695-3 0 9990 2 61753 97.3007 25.6248 0005883 10.8730 349.2649 15.53615021134756 HORS 4 (RS82S) 1 61754U 24199V 26150.14032360 .00067219 00000+0 89645-3 0 9990 2 61754 97.2955 26.7287 0004714 6.1608 353.9705 15.57879830134835 ARCTICSAT 1 (RS74S) 1 61762U 24199AD 26149.97016935 .00345497 48745-4 91586-3 0 9995 2 61762 97.2871 32.6987 0003786 178.9331 181.1953 15.94641718135204 SIT-2086 1 61764U 24199AF 26150.08405150 .00045808 00000+0 76684-3 0 9994 2 61764 97.2972 26.1190 0005726 346.4600 13.6498 15.51724784131622 HYPERVIEW 1G (RS66S) 1 61772U 24199AP 26150.12878963 .00137025 00000+0 10743-2 0 9990 2 61772 97.2913 28.9970 0003401 3.6927 356.4360 15.71137998131830 ALTAIR (RS65S) 1 61779U 24199AW 26150.07631030 .00009653 00000+0 27127-3 0 9993 2 61779 97.3055 19.5501 0013194 19.8374 340.3380 15.36640156134334 ASRTU-1 (AO-123) 1 61781U 24199AY 26150.11405360 .00010576 00000+0 30894-3 0 9997 2 61781 97.3026 18.9498 0014367 21.2118 338.9719 15.35383275131150 SAMSAT-IONOSPHERE (RS7*) 1 61784U 24199BB 26150.12632675 .00058296 00000+0 83647-3 0 9997 2 61784 97.2977 25.6092 0007794 3.8094 356.3218 15.55916819134752 RTU MIREA 1 (RS51S) 1 61785U 24199BC 26150.12440781 .00071280 00000+0 91097-3 0 9999 2 61785 97.2967 26.3514 0007278 0.4582 359.6679 15.58983545131657 TEVEL2-4 1 63213U 25052D 26149.65981025 .00024157 00000+0 73793-3 0 9997 2 63213 97.3939 46.0285 0003623 137.7072 222.4450 15.33880799 67277 TEVEL2-5 1 63214U 25052E 26149.67828913 .00022527 00000+0 69201-3 0 9994 2 63214 97.3927 46.0000 0003543 139.1674 220.9835 15.33717127 67279 TEVEL2-6 1 63215U 25052F 26150.14688440 .00025530 00000+0 78387-3 0 9990 2 63215 97.3932 46.4530 0003775 138.8027 221.3501 15.33706307 67344 TEVEL2-1 1 63217U 25052H 26149.64766979 .00021571 00000+0 67430-3 0 9997 2 63217 97.3905 45.6003 0003272 147.4885 212.6560 15.33171739 67255 TEVEL2-3 1 63218U 25052J 26149.70821898 .00024122 00000+0 75214-3 0 9991 2 63218 97.3910 45.6804 0003347 149.1860 210.9579 15.33228588 67263 TEVEL2-2 1 63219U 25052K 26150.17020425 .00024760 00000+0 77240-3 0 9991 2 63219 97.3906 46.1243 0003347 149.0826 211.0614 15.33208567 67338 TEVEL2-9 1 63237U 25052AD 26149.66722300 .00020248 00000+0 67187-3 0 9990 2 63237 97.3970 45.0362 0005585 187.6550 172.4607 15.31258755 67195 TEVEL2-7 1 63238U 25052AE 26149.70467153 .00021649 00000+0 72414-3 0 9993 2 63238 97.3974 44.9969 0005784 188.1757 171.9391 15.30984706 67192 TEVEL2-8 1 63239U 25052AF 26150.17024481 .00022743 00000+0 76040-3 0 9995 2 63239 97.3974 45.4396 0005752 187.2393 172.8766 15.30989075 67262 INNOSAT 16 (RS92S7) 1 64878U 25155C 26150.15869069 .00007981 00000+0 32003-3 0 9994 2 64878 97.4552 117.3480 0008679 244.8509 115.1829 15.25242742 77929 GEOSCAN 6 (RS92S6) 1 64879U 25155D 26150.13043222 .00013910 00000+0 48440-3 0 9999 2 64879 97.4543 118.6186 0006005 230.6249 129.4459 15.29772348 78003 GEOSCAN 1 (RS92S1) 1 64880U 25155E 26150.13973801 .00015039 00000+0 51445-3 0 9999 2 64880 97.4540 118.7608 0005934 230.4134 129.6583 15.30336600 78013 239ALFEROV (RS61S) 1 64881U 25155F 26150.13447659 .00020118 00000+0 64429-3 0 9997 2 64881 97.4541 119.2577 0005420 226.5474 133.5317 15.32404089 78040 GEOSCAN 2 (RS92S2) 1 64890U 25155Q 26150.20200135 .00015240 00000+0 51687-3 0 9993 2 64890 97.4539 118.9685 0005685 212.1869 147.9025 15.30613508 78035 GEOSCAN 5 (RS92S5) 1 64891U 25155R 26150.12724016 .00020352 00000+0 64544-3 0 9990 2 64891 97.4533 119.3810 0004158 232.0284 128.0583 15.32721495 78059 GEOSCAN 4 (RS92S4) 1 64892U 25155S 26150.17846337 .00020338 00000+0 64206-3 0 9996 2 64892 97.4537 119.4760 0004180 232.1586 127.9278 15.32867008 78061 GEOSCAN 3 (RS92S3) 1 64893U 25155T 26150.20179306 .00024105 00000+0 71698-3 0 9995 2 64893 97.4527 119.8789 0003998 229.1251 130.9646 15.34725578 78090 INNOSAT 3 (RS92S0) 1 64894U 25155U 26150.15643323 .00050739 00000+0 11688-2 0 9999 2 64894 97.4478 121.2400 0002858 206.4030 153.7072 15.42439939 78188 KNACKSAT-2 1 67683U 98067XZ 26148.92893911 .00055397 00000+0 72270-3 0 9992 2 67683 51.6306 31.2154 0011550 132.0548 228.1429 15.58069439 17279